YAOGAN-24

Last updated on Sat Oct 25 2025 00:02:32 GMT+0000 (Coordinated Universal Time)

1 40310U 14072A 25297.66936270 .00001433 00000+0 21463-3 0 9995 2 40310 98.1186 68.5123 0012467 304.7680 55.2355 14.76191872588974
UTC large
Height (km)
Speed (km/s)
/
Latitude / Longitude
Inclination (degrees)
Orbital Period (minutes)
Azimuth
Elevation
Range (km)
Doppler Factor

Next 0 passes for location: London (51.5072 / 0.1276)

Sorry there are no passes over London.